Regional Weather Roundup
Issued by NWS

Home | Current Version | Previous Version | Text Only | Print | Product List | Glossary Off
Versions: 1 2 3 4 5 6 7 8 9 10 11 12 13 14 15 16 17 18 19 20 21 22 23 24 25 26 27 28 29 30 31 32 33 34 35 36 37 38 39 40 41 42 43 44 45 46 47 48 49 50

199
ASUS45 KPSR 040110
RWRAZ

ARIZONA HOURLY REGIONAL WEATHER ROUNDUP
NATIONAL WEATHER SERVICE PHOENIX AZ
600 PM MST TUE MAY 03 2016

NOTE: FAIR INDICATES FEW OR NO CLOUDS BELOW 12,000 FEET WITH NO
SIGNIFICANT WEATHER AND/OR OBSTRUCTIONS TO VISIBILITY.

AZZ001>003-036-040200-
NORTHWEST ARIZONA

CITY           SKY/WX    TMP DP  RH WIND       PRES   REMARKS
BULLHEAD CITY  SUNNY     91  36  14 NW10      29.85F
KINGMAN        SUNNY     81  29  15 S10       29.98F
$$

AZZ004>008-015-016-018-040200-
NORTH CENTRAL ARIZONA

CITY           SKY/WX    TMP DP  RH WIND       PRES   REMARKS
GRAND CANYON   SUNNY     65  24  21 E9G17     30.22F
WILLIAMS       SUNNY     64  23  20 SE10      30.26S
PRESCOTT       SUNNY     73  29  19 CALM      30.09S
FLAGSTAFF      SUNNY     59  27  29 NE9       30.23S
PAYSON         SUNNY     73  28  19 NE9       30.11S
PAGE           SUNNY     74  24  15 VRB3      30.11F
$$

AZZ009>014-017-040200-
NORTHEAST ARIZONA

CITY           SKY/WX    TMP DP  RH WIND       PRES   REMARKS
WINSLOW        SUNNY     73  25  16 E8        30.12F
SAINT JOHNS    SUNNY     71  28  20 NE12      30.13S
WINDOW ROCK    SUNNY     66  28  24 E5        30.22S
SHOW LOW       FAIR      64  27  24 NE12      30.18F
$$

AZZ023-040200-
GREATER PHOENIX AREA

CITY           SKY/WX    TMP DP  RH WIND       PRES   REMARKS
PHOENIX        MOSUNNY   91  31  11 CALM      29.81F
BUCKEYE        SUNNY     90  30  12 S6        29.85S
GLENDALE       MOSUNNY   91  28  10 SE5       29.84F
LUKE AFB       SUNNY     91  30  11 W7        29.82S
DEER VALLEY    SUNNY     90  31  12 SW10      29.83F
SCOTTSDALE     SUNNY     91  25   9 S8        29.85S
MESA-FALCON    SUNNY    N/A N/A N/A S12       29.81F
MESA-GATEWAY   SUNNY     90  32  12 W3        29.84F
CHANDLER       MOSUNNY   91  30  11 SW7       29.83F
$$

AZZ027-028-040200-
SOUTHWEST MARICOPA COUNTY AND PINAL COUNTY

CITY           SKY/WX    TMP DP  RH WIND       PRES   REMARKS
CASA GRANDE    SUNNY     90  32  12 W9        29.87F
GILA BEND      SUNNY     92  25   9 W6        29.81F
$$

AZZ503-504-507>509-040200-
SOUTHEAST ARIZONA

CITY           SKY/WX    TMP DP  RH WIND       PRES   REMARKS
TUCSON         SUNNY     89  23   9 N7        29.91F
DAVIS-MONTHAN  SUNNY     87  22   9 NW7       29.89F
NOGALES        SUNNY     85  22  10 NE5       29.96S
SIERRA VISTA   SUNNY     81  14   8 VRB6      30.02S
DOUGLAS        SUNNY     83  18   9 E3        29.98S
SAFFORD        SUNNY     85  25  11 CALM      29.93F
$$

AZZ020-021-025-026-031-040200-
SOUTHWEST ARIZONA

CITY           SKY/WX    TMP DP  RH WIND       PRES   REMARKS
YUMA           MOSUNNY   93  38  14 W10       29.79F
$$

CAZ031-033-041-043-047-048-061-040200-
SOUTHERN CALIFORNIA

CITY           SKY/WX    TMP DP  RH WIND       PRES   REMARKS
DOWNTOWN L.A.  PTSUNNY   66  56  70 VRB6      29.89F
L.A. AIRPORT   CLOUDY    61  56  83 W12       29.90F
SAN DIEGO      PTSUNNY   67  55  65 NW10      29.94S
BURBANK        PTSUNNY   77  53  43 S7        29.88F
ONTARIO        PTSUNNY   82  46  28 W15G21    29.87F
RIVERSIDE      PTSUNNY   82  45  27 W13       29.86F
PALM SPRINGS   PTSUNNY   92  30  11 VRB6      29.82F
EL CENTRO NAS  MOSUNNY   93  32  11 SW6       29.81F
IMPERIAL       SUNNY     93  37  14 W8        29.78F
BLYTHE         SUNNY     93  32  11 E5        29.81F
NEEDLES        SUNNY     92  29  10 VRB3      29.84F
$$

NVZ020-UTZ003-040200-
SOUTHERN NEVADA-UTAH

CITY           SKY/WX    TMP DP  RH WIND       PRES   REMARKS
LAS VEGAS      MOSUNNY   83  28  13 N7        29.91F
SALT LAKE CITY MOSUNNY   72  29  20 W9        30.12F
$$

NMZ009-TXZ055-040200-
NEW MEXICO-WEST TEXAS

CITY           SKY/WX    TMP DP  RH WIND       PRES   REMARKS
ALBUQUERQUE    PTCLDY    72  23  16 VRB7      30.15S
EL PASO        PTCLDY    81  26  13 N8        30.03S
$$


........................KEY........................
SKY/WX - SKY CONDITION/WEATHER
TMP    - TEMPERATURE IN FAHRENHEIT
DP     - DEW POINT IN FAHRENHEIT
RH     - RELATIVE HUMIDITY IN PERCENT
WIND   - DIRECTION AND SPEED IN MILES PER HOUR (MPH)
VRB    - VARIABLE WIND DIRECTION
PRES   - MEAN SEA LEVEL PRESSURE IN INCHES OF MERCURY
         F - FALLING PRESSURE   R - RISING PRESSURE
         S - STEADY PRESSURE
VSB    - VISIBILITY IN MILES
HX     - HEAT INDEX IN FAHRENHEIT
WCI    - WIND CHILL INDEX IN FAHRENHEIT
TC     - TEMPERATURE IN CELSIUS WHICH IS ALSO KNOWN AS
         TEMPERATURE IN CENTIGRADE
AFB    - AIR FORCE BASE
         LUKE AFB IS LUKE AIR FORCE BASE
         DAVIS-MONTHAN IS DAVIS-MONTHAN AIR FORCE BASE
NAS    - NAVAL AIR STATION
         EL CENTRO NAS IS EL CENTRO NAVAL AIR STATION
N/A    - NOT AVAILABLE





USA.gov is the U.S. government's official web portal to all federal, state and local government web resources and services.